Location: Baix
(44.7118°N, 4.7648°E)
Time: 01:37:24
(UTC+00:00)

In-Cosmos 22 - Pass Details

Date: 07 August 2020
Orbit: 784 x 877 km, 81.2° (Epoch: 19 September)

Event Time Altitude Azimuth Distance (km) Brightness Sun altitude
Rises 01:10:52 0° 347° (NNW) 3,436 8.2 -26.0°
Reaches altitude 10° 01:13:19 10° 346° (NNW) 2,482 7.3 -25.9°
Maximum altitude 01:18:55 73° 263° (W) 873 4.1 -25.5°
Enters shadow 01:19:17 70° 231° (SW) 884 4.0 -25.4°
